• Em Portugal
  • Lista de países
  • Para 7 dias
  • Temperatura da água
  • Mapas de satélite
  • Mapa do tempo
  • Widgets de tempo
  • user-avatar
    Iniciar Sessão

    Previsão horária em Wladyslawek

    Hoje, 16 Agosto, Quinta-feira

    Tempo Temperatura Precipitação Vento Pressão Humidade
    00:00 +16°C° 0 mm 1 m/s 749 mmHg 86%
    01:00 +15°C° 0 mm 1 m/s 749 mmHg 88%
    02:00 +15°C° 0 mm 1 m/s 749 mmHg 89%
    03:00 +15°C° 0 mm 1 m/s 749 mmHg 90%
    04:00 +15°C° 0 mm 1 m/s 750 mmHg 91%
    05:00 +16°C° 0 mm 1 m/s 750 mmHg 85%
    06:00 +18°C° 0 mm 1 m/s 750 mmHg 80%
    07:00 +20°C° 0 mm 1 m/s 750 mmHg 75%
    08:00 +21°C° 0 mm 1 m/s 750 mmHg 68%
    09:00 +23°C° 0 mm 1 m/s 750 mmHg 62%
    10:00 +25°C° 0 mm 1 m/s 751 mmHg 56%
    11:00 +25°C° 0 mm 1 m/s 750 mmHg 53%
    12:00 +26°C° 0 mm 1 m/s 750 mmHg 50%
    13:00 +27°C° 0 mm 1 m/s 750 mmHg 47%
    14:00 +27°C° 0 mm 1 m/s 750 mmHg 48%
    15:00 +26°C° 0 mm 1 m/s 749 mmHg 49%
    16:00 +26°C° 0 mm 1 m/s 749 mmHg 51%
    17:00 +25°C° 0 mm 1 m/s 749 mmHg 54%
    18:00 +24°C° 0 mm 1 m/s 749 mmHg 57%
    19:00 +23°C° 0 mm 1 m/s 749 mmHg 60%
    20:00 +23°C° 0 mm 1 m/s 749 mmHg 61%
    21:00 +22°C° 0 mm 1 m/s 749 mmHg 61%
    22:00 +22°C° 0 mm 1 m/s 749 mmHg 62%
    23:00 +21°C° 0 mm 1 m/s 749 mmHg 64%

    Amanhã, 17 Agosto, Sexta-feira

    Tempo Temperatura Precipitação Vento Pressão Humidade
    00:00 +21°C° 0 mm 1 m/s 749 mmHg 65%
    01:00 +20°C° 0 mm 1 m/s 749 mmHg 67%
    02:00 +20°C° 0 mm 1 m/s 748 mmHg 69%
    03:00 +18°C° 0 mm 2 m/s 748 mmHg 71%
    04:00 +18°C° 0 mm 2 m/s 748 mmHg 73%
    05:00 +19°C° 0 mm 2 m/s 748 mmHg 71%
    06:00 +20°C° 0 mm 2 m/s 748 mmHg 68%
    07:00 +21°C° 0 mm 2 m/s 749 mmHg 66%
    08:00 +22°C° 0 mm 3 m/s 749 mmHg 60%
    09:00 +25°C° 0 mm 3 m/s 749 mmHg 53%
    10:00 +27°C° 0 mm 3 m/s 749 mmHg 47%
    11:00 +27°C° 0 mm 3 m/s 748 mmHg 46%
    12:00 +27°C° 0 mm 3 m/s 748 mmHg 45%
    13:00 +28°C° 0 mm 3 m/s 748 mmHg 44%
    14:00 +28°C° 0 mm 2 m/s 748 mmHg 45%
    15:00 +28°C° 0 mm 2 m/s 747 mmHg 46%
    16:00 +28°C° 0 mm 2 m/s 747 mmHg 47%
    17:00 +26°C° 0 mm 2 m/s 747 mmHg 52%
    18:00 +25°C° 0 mm 2 m/s 747 mmHg 56%
    19:00 +24°C° 0 mm 2 m/s 747 mmHg 60%
    20:00 +24°C° 0 mm 2 m/s 747 mmHg 62%
    21:00 +23°C° 0 mm 2 m/s 747 mmHg 65%
    22:00 +21°C° 0 mm 2 m/s 747 mmHg 67%
    23:00 +21°C° 0 mm 2 m/s 747 mmHg 68%

    Depois de amanhã, 18 Agosto, Sábado

    Tempo Temperatura Precipitação Vento Pressão Humidade
    00:00 +20°C° 0 mm 2 m/s 747 mmHg 70%
    01:00 +21°C° 0 mm 1 m/s 747 mmHg 72%
    02:00 +21°C° 0,2 mm 1 m/s 747 mmHg 74%
    03:00 +20°C° 0,2 mm 1 m/s 747 mmHg 76%
    04:00 +20°C° 0,2 mm 1 m/s 747 mmHg 78%
    05:00 +21°C° 0,1 mm 1 m/s 747 mmHg 76%
    06:00 +22°C° 0,1 mm 1 m/s 748 mmHg 74%
    07:00 +23°C° 0,1 mm 1 m/s 748 mmHg 71%
    08:00 +23°C° 0,2 mm 1 m/s 748 mmHg 70%
    09:00 +24°C° 0,2 mm 1 m/s 748 mmHg 69%
    10:00 +25°C° 0,2 mm 2 m/s 749 mmHg 68%
    11:00 +25°C° 0,3 mm 2 m/s 749 mmHg 64%
    12:00 +26°C° 0,3 mm 2 m/s 749 mmHg 61%
    13:00 +27°C° 0,3 mm 3 m/s 749 mmHg 58%
    14:00 +26°C° 0,4 mm 3 m/s 749 mmHg 60%
    15:00 +26°C° 0,4 mm 3 m/s 749 mmHg 62%
    16:00 +26°C° 0,4 mm 4 m/s 749 mmHg 64%
    17:00 +24°C° 0,2 mm 3 m/s 749 mmHg 68%
    18:00 +22°C° 0,2 mm 3 m/s 749 mmHg 73%
    19:00 +20°C° 0,2 mm 3 m/s 749 mmHg 77%
    20:00 +19°C° 0 mm 3 m/s 750 mmHg 78%
    21:00 +18°C° 0 mm 2 m/s 750 mmHg 80%
    22:00 +16°C° 0 mm 2 m/s 750 mmHg 82%
    23:00 +16°C° 0 mm 2 m/s 750 mmHg 81%

    19 Agosto, Domingo

    Tempo Temperatura Precipitação Vento Pressão Humidade
    00:00 +15°C° 0 mm 2 m/s 750 mmHg 80%
    01:00 +15°C° 0 mm 1 m/s 751 mmHg 79%
    02:00 +15°C° 0 mm 1 m/s 751 mmHg 78%
    03:00 +15°C° 0 mm 2 m/s 751 mmHg 77%
    04:00 +15°C° 0 mm 2 m/s 751 mmHg 77%
    05:00 +16°C° 0 mm 2 m/s 751 mmHg 74%
    06:00 +17°C° 0 mm 2 m/s 751 mmHg 72%
    07:00 +18°C° 0 mm 3 m/s 751 mmHg 69%
    08:00 +20°C° 0 mm 3 m/s 751 mmHg 64%
    09:00 +21°C° 0 mm 3 m/s 751 mmHg 59%
    10:00 +23°C° 0 mm 4 m/s 752 mmHg 54%
    11:00 +23°C° 0 mm 4 m/s 751 mmHg 54%
    12:00 +25°C° 0 mm 4 m/s 751 mmHg 53%
    13:00 +26°C° 0 mm 4 m/s 751 mmHg 52%
    14:00 +26°C° 0 mm 4 m/s 751 mmHg 53%
    15:00 +25°C° 0 mm 4 m/s 751 mmHg 54%
    16:00 +25°C° 0 mm 3 m/s 751 mmHg 55%
    17:00 +24°C° 0 mm 3 m/s 750 mmHg 61%
    18:00 +23°C° 0 mm 2 m/s 750 mmHg 67%
    19:00 +20°C° 0 mm 2 m/s 750 mmHg 73%
    20:00 +20°C° 0 mm 1 m/s 750 mmHg 77%
    21:00 +20°C° 0 mm 1 m/s 750 mmHg 80%
    22:00 +19°C° 0 mm 1 m/s 751 mmHg 84%
    23:00 +19°C° 0 mm 1 m/s 750 mmHg 84%

    20 Agosto, Segunda-feira

    Tempo Temperatura Precipitação Vento Pressão Humidade
    00:00 +18°C° 0 mm 1 m/s 750 mmHg 85%
    01:00 +18°C° 0 mm 1 m/s 750 mmHg 85%
    02:00 +18°C° 0 mm 1 m/s 750 mmHg 86%
    03:00 +18°C° 0 mm 1 m/s 750 mmHg 86%
    04:00 +17°C° 0 mm 2 m/s 749 mmHg 87%
    05:00 +18°C° 0 mm 2 m/s 749 mmHg 82%
    06:00 +19°C° 0 mm 3 m/s 749 mmHg 77%
    07:00 +20°C° 0 mm 3 m/s 749 mmHg 71%
    08:00 +22°C° 0 mm 3 m/s 749 mmHg 64%
    09:00 +25°C° 0 mm 4 m/s 749 mmHg 57%
    10:00 +27°C° 0 mm 4 m/s 749 mmHg 50%
    11:00 +28°C° 0 mm 4 m/s 749 mmHg 48%
    12:00 +28°C° 0 mm 5 m/s 748 mmHg 46%
    13:00 +29°C° 0 mm 5 m/s 748 mmHg 44%
    14:00 +28°C° 0 mm 4 m/s 748 mmHg 47%
    15:00 +28°C° 0 mm 4 m/s 747 mmHg 50%
    16:00 +27°C° 0 mm 3 m/s 747 mmHg 54%
    17:00 +26°C° 0 mm 3 m/s 747 mmHg 59%
    18:00 +25°C° 0 mm 3 m/s 747 mmHg 65%
    19:00 +23°C° 0 mm 2 m/s 747 mmHg 71%
    20:00 +21°C° 0 mm 2 m/s 747 mmHg 75%
    21:00 +20°C° 0 mm 2 m/s 747 mmHg 79%
    22:00 +20°C° 0 mm 1 m/s 747 mmHg 83%
    23:00 +19°C° 0 mm 2 m/s 747 mmHg 85%

    21 Agosto, Terça-feira

    Tempo Temperatura Precipitação Vento Pressão Humidade
    00:00 +19°C° 0 mm 2 m/s 747 mmHg 87%
    01:00 +18°C° 0 mm 2 m/s 747 mmHg 88%
    02:00 +18°C° 0 mm 2 m/s 747 mmHg 89%
    03:00 +18°C° 0 mm 2 m/s 747 mmHg 90%
    04:00 +18°C° 0 mm 2 m/s 747 mmHg 91%
    05:00 +19°C° 0 mm 3 m/s 747 mmHg 87%
    06:00 +20°C° 0 mm 3 m/s 747 mmHg 82%
    07:00 +21°C° 0 mm 4 m/s 748 mmHg 78%
    08:00 +22°C° 0 mm 4 m/s 748 mmHg 72%
    09:00 +23°C° 0 mm 4 m/s 748 mmHg 65%
    10:00 +25°C° 0 mm 4 m/s 748 mmHg 59%
    11:00 +26°C° 0 mm 4 m/s 748 mmHg 56%
    12:00 +26°C° 0 mm 4 m/s 748 mmHg 53%
    13:00 +27°C° 0 mm 4 m/s 748 mmHg 51%
    14:00 +27°C° 0,1 mm 4 m/s 748 mmHg 53%
    15:00 +26°C° 0,1 mm 4 m/s 747 mmHg 55%
    16:00 +26°C° 0,1 mm 3 m/s 747 mmHg 57%
    17:00 +25°C° 0,2 mm 3 m/s 747 mmHg 62%
    18:00 +24°C° 0,2 mm 2 m/s 747 mmHg 68%
    19:00 +23°C° 0,2 mm 1 m/s 746 mmHg 74%
    20:00 +21°C° 0,2 mm 2 m/s 746 mmHg 77%
    21:00 +20°C° 0,2 mm 2 m/s 746 mmHg 80%
    22:00 +20°C° 0,2 mm 2 m/s 746 mmHg 83%
    23:00 +19°C° 0,1 mm 2 m/s 746 mmHg 85%
    Mostrar mais